Location: Bergholz
(52.3363°N, 13.0954°E)
Time: 05:09:51
(UTC+00:00)

Daily predictions for brighter satellites

Satellite Brightness Start Highest point End
(mag) Time Altitude Azimuth Time Altitude Azimuth Time Altitude Azimuth
Cosmos 1025 Rocket 4.2 00:02:51 10° NNW 00:06:21 29° W 00:06:21 29° W
Okean 1 Rocket 2.9 00:09:30 74° S 00:09:52 86° ESE 00:14:17 10° NNE
SJ 16-02 1.3 00:09:53 64° SE 00:10:13 67° ESE 00:14:37 10° NNE
Okean 2 Rocket 4.0 00:10:41 34° W 00:11:21 36° WNW 00:15:33 10° N
SL-16 R/B 2.4 00:07:31 10° NW 00:13:02 50° WSW 00:13:48 47° SW
Cosmos 2263 Rocket 3.6 00:14:58 21° SE 00:16:48 25° ESE 00:21:15 10° NE
SL-14 R/B 3.2 00:13:00 10° N 00:16:55 71° ENE 00:17:08 69° ESE
Cosmos 724 4.2 00:11:36 10° NW 00:17:37 82° SW 00:20:59 28° SSE
Cosmos 2142 Rocket 4.5 00:17:47 43° S 00:20:08 88° E 00:26:35 10° N
MOZ.5/SAFIR/RUBIN 5/SL-8 3.7 00:22:13 51° SSE 00:23:24 87° ENE 00:28:10 10° NNW
SL-19 R/B 4.4 00:19:07 10° NNE 00:24:59 69° ESE 00:26:52 42° S
Cosmos 1937 Rocket 4.1 00:27:08 36° SSE 00:28:42 47° ESE 00:33:47 10° NE
Cosmos 158 Rocket 4.3 00:23:59 10° NNW 00:29:11 50° WSW 00:29:59 46° SW
Okean 1-7 Rocket 3.7 00:25:33 10° N 00:29:59 69° ENE 00:31:14 45° SE
ADEOS II 4.0 00:26:15 10° NE 00:30:18 22° E 00:33:36 13° SE
CZ-4C R/B 3.5 00:29:47 50° ESE 00:30:20 56° ENE 00:33:59 10° N
Cosmos 990 Rocket 4.0 00:29:47 48° S 00:31:08 68° ESE 00:36:17 10° NNE
Cosmos 2297 Rocket 2.8 00:28:55 30° WSW 00:31:23 50° NW 00:36:54 10° NNE
Cosmos 2266 Rocket 4.1 00:28:30 10° N 00:34:53 74° ENE 00:38:25 28° SSE
Cosmos 2112 Rocket 4.2 00:30:58 10° NNW 00:36:01 50° WSW 00:36:46 46° SW
Cosmos 1455 Rocket 3.6 00:35:31 40° SE 00:36:41 53° E 00:41:02 10° NNE
ATLAS CENTAUR R/B 3.8 00:37:35 11° ESE 00:38:08 11° ESE 00:39:30 10° E
USA 229 DEB 3.8 00:36:45 38° S 00:39:14 60° SE 00:46:01 10° NE
USA 229 3.8 00:36:53 37° S 00:39:20 59° SE 00:46:07 10° NE
UNK 3.7 00:38:59 44° SSE 00:40:30 88° ENE 00:45:13 10° NNW
Cosmos 1726 4.0 00:39:49 19° ESE 00:41:01 22° E 00:43:54 10° NE
Cosmos 2237 Rocket 4.2 00:38:59 10° WNW 00:41:12 13° W 00:41:12 13° W
Cosmos 2219 4.2 00:41:48 22° W 00:44:48 38° NW 00:50:03 10° NNE
Cosmos 1898 Rocket 3.4 00:43:57 45° SSW 00:45:34 80° ESE 00:50:48 10° NNE
Cosmos 1932 4.5 00:39:48 10° NW 00:46:22 87° NE 00:52:47 10° SE
Cosmos 1892 Rocket 3.6 00:42:40 10° NNW 00:47:06 66° W 00:47:51 54° SSW
Meteor 1-24 Rocket 3.7 00:42:18 10° NNW 00:47:37 58° W 00:49:06 43° SSW
Meteor 1-29 3.5 00:45:42 10° N 00:49:03 47° WNW 00:49:04 47° WNW
NOSS 2-3 (C) 4.3 00:48:08 37° SSE 00:49:04 42° ESE 00:53:53 10° NE
Cosmos 1674 4.5 00:47:41 10° NW 00:49:53 20° WNW 00:49:53 20° WNW
NOSS 3-1 (A) 3.7 00:48:36 35° S 00:50:36 51° ESE 00:56:51 10° NE
Cosmos 1680 Rocket 4.2 00:46:23 10° NW 00:51:03 34° WSW 00:51:28 34° WSW
IRAS Rocket 4.2 00:49:56 36° S 00:52:19 72° WSW 00:57:58 10° NNW
Lacrosse 4 Rocket 4.4 00:51:56 10° NNW 00:53:05 11° NNW 00:54:13 10° N
Spot 1 4.1 00:52:54 49° WSW 00:53:06 49° WSW 00:57:06 10° NNW
Cosmos 1603 3.6 00:47:58 10° NNW 00:53:45 78° WSW 00:57:17 24° SSE
Cosmos 1461 3.3 00:55:29 40° WSW 00:56:56 63° NW 01:01:34 10° NE
ATLAS 3B R/B 4.4 00:58:15 10° WNW 01:04:06 31° N 01:10:06 10° ENE
CZ-2D R/B 2.2 00:59:55 10° NNE 01:05:27 84° ESE 01:08:00 34° SSW
DELTA 2 DEB (DPAF) 4.5 01:05:02 42° SW 01:05:42 45° W 01:09:59 10° NNW
Cosmos 1340 Rocket 2.7 01:07:07 50° S 01:08:05 83° E 01:12:03 10° NNE
Cosmos 1758 3.3 01:08:43 45° S 01:09:50 78° E 01:13:52 10° NNE
Cosmos 1766 4.4 01:11:18 28° W 01:11:52 29° WNW 01:15:18 10° N
Cosmos 1943 3.1 01:06:42 10° NW 01:12:18 68° WSW 01:16:10 20° SSE
SL-16 R/B 2.7 01:09:25 31° SSW 01:12:21 55° W 01:18:30 10° NNW
Timation 1 Rocket 4.3 01:10:12 33° SSW 01:13:01 86° ESE 01:19:02 10° NNE
SL-24 R/B 4.5 01:12:55 34° SSW 01:15:06 71° W 01:20:32 10° N
Cosmos 1733 4.3 01:14:34 29° W 01:15:09 31° WNW 01:18:38 10° N
SAR-Lupe-3 4.5 01:11:55 10° NNE 01:15:32 81° WNW 01:16:16 54° SSW
Cosmos 1626 3.5 01:12:30 10° NW 01:15:17 24° W 01:15:17 24° W
Cosmos 1655 Rocket 4.3 01:09:45 10° NNW 01:15:44 49° W 01:18:27 30° SSW
Cosmos 2227 Rocket 3.6 01:18:31 15° W 01:22:20 31° NW 01:27:21 10° NNE
IRS-1D 3.9 01:17:25 10° NNE 01:22:29 61° ESE 01:25:39 23° S
NPP 3.6 01:18:50 10° NNE 01:24:16 83° WNW 01:27:04 30° SSW
Cosmos 1544 Rocket 3.5 01:22:37 37° SSW 01:24:20 78° WNW 01:28:50 10° N
Helios 1B rocket 4.3 01:21:38 10° NNW 01:24:35 19° WNW 01:25:58 16° W
Cosmos 1470 2.9 01:24:19 42° SW 01:25:24 60° WNW 01:29:23 10° N
Cosmos 1953 2.7 01:23:54 29° SSE 01:25:47 61° E 01:29:48 10° NNE
AQUA 3.8 01:27:15 10° NNE 01:32:03 81° WNW 01:34:26 30° SSW
CENTAUR R/B 4.2 01:28:02 10° NW 01:35:06 44° NNE 01:43:07 10° E
Resurs 1-4 Rocket 2.4 01:33:41 10° N 01:38:50 55° WNW 01:41:36 26° SW
Exosat Rocket 4.2 01:36:53 24° SSW 01:41:50 81° WNW 01:47:36 10° NNE
Cosmos 1602 Rocket 3.5 01:37:42 10° NNW 01:42:03 65° W 01:44:26 25° S
Meteor 2-21 Rocket 4.4 01:36:26 10° NNW 01:42:32 82° W 01:48:19 12° S
Cosmos 2098 Rocket 4.5 01:38:12 10° NNW 01:43:16 39° W 01:46:32 23° SW
NOSS 2-3 (E) 3.8 01:44:49 28° SW 01:47:14 81° NW 01:52:40 10° NE
IDEFIX/ARIANE 42P 3.9 01:42:42 10° NNE 01:47:28 35° E 01:52:13 10° SSE
Cosmos 2227 4.3 01:44:00 25° SW 01:47:28 77° WNW 01:53:16 10° NNE
Meteor 2-14 Rocket 4.4 01:41:48 10° NNW 01:47:49 65° W 01:52:41 16° S
USA 267 3.5 01:41:40 10° ESE 01:48:11 76° NNE 01:54:45 10° WNW
SJ 16-02 3.2 01:46:52 14° W 01:49:16 21° NW 01:52:39 10° N
NOSS 3-1 (C) 3.8 01:48:09 19° WSW 01:52:19 61° NW 01:59:05 10° NE
Cosmos 1048 Rocket 4.0 01:50:26 10° NNW 01:55:31 60° WSW 02:00:37 10° S
IRS-P3 4.2 01:52:06 10° NNE 01:57:30 78° ESE 02:01:52 16° S
Cosmos 1908 3.5 01:56:15 18° S 01:59:02 68° E 02:02:56 10° NNE
Cosmos 2263 Rocket 2.3 01:56:40 22° SW 02:00:15 69° NW 02:05:51 10° NNE
Cosmos 2298 Rocket 4.0 01:57:57 21° SSW 02:01:37 89° SE 02:07:00 10° NNE
Cosmos 2228 3.7 01:59:31 10° S 02:03:44 53° E 02:08:02 10° NNE
Meteor 1-16 Rocket 4.2 02:01:57 16° SSW 02:06:21 88° WNW 02:12:04 10° NNE
Cosmos 372 Rocket 4.1 02:04:37 21° SW 02:08:05 64° WNW 02:13:20 10° NNE
Meteor 1-28 Rocket 3.2 02:06:33 15° S 02:09:40 62° W 02:13:28 10° NNW
ADEOS II 2.1 02:05:16 10° N 02:10:31 68° WNW 02:14:31 17° SSW
SL-08 R/B 3.4 02:05:38 10° S 02:10:33 62° WSW 02:15:28 10° NNW
NOSS 2-3 (D) 4.1 02:08:30 19° WSW 02:11:38 63° NW 02:17:07 10° NE
CZ-2C R/B 4.3 02:08:59 10° NNE 02:12:28 32° E 02:15:51 10° SSE
CZ-4B R/B 3.7 02:08:51 10° N 02:13:27 50° WNW 02:16:39 19° SW
Cosmos 1356 Rocket 4.2 02:10:55 10° S 02:14:54 48° E 02:18:52 10° NNE
Cosmos 1900 4.5 02:09:57 10° NW 02:14:57 55° WSW 02:19:59 10° SSE
Cosmos 1726 3.0 02:14:19 22° WSW 02:16:03 33° WNW 02:19:26 10° N
Cosmos 2285 Rocket 4.0 02:10:59 16° SSW 02:16:08 87° WNW 02:22:29 10° NNE
ATLAS CENTAUR R/B 1.3 02:13:46 21° SSW 02:16:25 74° SE 02:20:17 10° NE
Cosmos 2297 Rocket 4.4 02:13:08 10° WNW 02:16:50 17° NNW 02:20:33 10° NNE
Cosmos 1269 Rocket 4.1 02:12:06 10° NNW 02:17:26 87° ENE 02:22:44 10° SSE
Cosmos 1300 4.0 02:15:48 10° SSE 02:19:21 39° E 02:22:57 10° NNE
NOSS 3-2 (A) 4.4 02:12:56 10° NW 02:20:06 70° NE 02:28:19 10° ESE
Cosmos 1553 Rocket 4.0 02:15:33 10° S 02:21:38 89° W 02:27:51 10° N
Cosmos 1844 Rocket 3.4 02:17:55 10° S 02:23:17 50° ESE 02:28:39 10° NE
ERS-2 3.0 02:19:58 10° SE 02:23:32 52° ENE 02:27:06 10° N
GEOS 3 Rocket 4.0 02:18:28 10° NE 02:23:50 64° NW 02:28:25 14° WSW
OPS 6432 4.2 02:21:00 10° NW 02:24:02 75° SW 02:27:43 10° SE
Meteor 1-11 4.2 02:18:33 10° NNW 02:24:18 75° W 02:29:57 10° S
CZ-4C R/B 3.2 02:23:57 10° SSE 02:27:16 70° ENE 02:30:43 10° N
SL-08 ROCKET BODY 4.4 02:21:25 10° NNW 02:27:29 77° W 02:33:25 10° S
Cosmos 1745 Rocket 4.0 02:22:57 10° NNW 02:29:15 79° W 02:35:26 10° S
USA 229 DEB 4.3 02:24:11 11° WSW 02:30:24 51° NNW 02:37:18 10° NE
USA 229 4.3 02:24:18 11° WSW 02:30:30 51° NNW 02:37:24 10° NE
ARIANE 5 R/B 2.6 02:25:40 10° NNE 02:30:56 80° WNW 02:36:10 10° SSW
CSL-04 DEB 4.3 02:27:48 10° SSE 02:31:45 83° WSW 02:35:46 10° NNW
Cosmos 2084 3.5 02:28:47 17° SW 02:32:13 84° NW 02:36:43 10° NE
Cosmos 1758 Rocket 4.1 02:30:10 10° NNW 02:34:12 38° W 02:38:13 10° SSW
NOSS 8 (E) 4.2 02:32:47 17° SW 02:35:01 75° SE 02:38:04 10° NE
ERS-1 4.5 02:31:06 10° NNE 02:36:03 72° WNW 02:41:01 10° SSW
Cosmos 1867 3.7 02:35:01 10° NW 02:40:32 81° NE 02:46:00 10° SE
NOSS 3-1 (A) 4.0 02:36:02 11° WSW 02:41:33 52° NNW 02:48:19 10° NE
Cosmos 494 Rocket 4.5 02:39:01 10° NW 02:43:47 38° WSW 02:48:33 10° S
CZ-2D R/B 3.8 02:40:49 10° N 02:44:55 22° NW 02:48:58 10° WSW
Cosmos 2150 Rocket 4.5 02:42:28 13° SW 02:46:59 48° WNW 02:52:08 10° NNE
Cosmos 2058 Rocket 3.3 02:43:15 10° S 02:47:41 73° E 02:52:07 10° NNE
H-2A R/B 1.9 02:44:23 10° S 02:48:27 67° WSW 02:52:34 10° NNW
CZ-2C R/B 3.6 02:47:07 10° NNE 02:51:27 39° E 02:55:50 10° SSE
Cosmos 2058 4.0 02:48:04 10° N 02:52:09 49° ENE 02:56:13 10° SSE
Cosmos 1825 Rocket 4.3 02:48:51 10° NNW 02:52:42 32° W 02:56:32 10° SSW
S3M 4.1 02:47:09 10° SSW 02:53:32 74° WNW 02:59:57 10° N
Cosmos 1408 4.4 02:52:54 10° N 02:56:24 37° ENE 02:59:52 10° SE
ATLAS 3B R/B 4.0 02:50:04 10° NW 02:56:26 42° NNE 03:02:58 10° E
In-Cosmos 22 Rocket 4.5 02:50:40 10° NNW 02:56:33 82° ENE 03:02:21 10° SSE
USA 215 3.6 02:50:20 10° ENE 02:56:48 59° SE 03:03:15 10° SW
SL-16 R/B 4.4 02:56:00 10° W 02:57:23 11° W 02:58:47 10° WNW
Landsat 5 3.5 02:53:26 10° S 02:57:25 59° WSW 03:01:36 10° NNW
Cosmos 1125 Rocket 3.8 02:54:02 10° SW 02:59:12 55° WNW 03:04:26 10° NNE
Cosmos 1953 4.2 02:59:54 10° WSW 03:02:36 17° WNW 03:05:20 10° NNW
Cosmos 1892 3.1 02:59:16 10° N 03:03:08 69° ENE 03:06:56 10° SSE
Cosmos 1953 Rocket 4.2 03:00:05 10° NNW 03:04:13 37° W 03:08:19 10° SSW
CZ-4B R/B 2.1 03:03:07 10° SSE 03:06:13 54° ENE 03:09:18 10° N
CZ-2D R/B 3.9 03:04:25 10° N 03:08:14 44° WNW 03:12:01 10° SW
Cosmos 1709 Rocket 4.0 03:02:53 10° NNW 03:09:02 71° W 03:15:06 10° S
PAYLOAD A 4.4 03:08:39 10° NNE 03:13:59 72° ESE 03:19:06 10° S
